Regional Weather Roundup
Issued by NWS Sterling, VA

Home | Current Version | Previous Version | Graphics & Text | Print | Product List | Glossary On
Versions: 1 2 3 4 5 6 7 8 9 10 11 12 13 14 15 16 17 18 19 20 21 22 23 24 25 26 27 28
000
ASUS41 KLWX 221410
RWRLWX

REGIONAL WEATHER ROUNDUP
NATIONAL WEATHER SERVICE BALTIMORE MD/WASHINGTON DC
1000 AM EDT WED OCT 22 2014

Note: "FAIR" indicates few or no clouds below 12,000 feet
with no significant weather and/or obstructions to visibility.
 TC=TEMPERATURE CELSIUS

 * =Non NWS site. Station does not report precipitation (e.g. rain,
    snow, etc.), thunder, or fog.

DCZ001-MDZ009-015-VAZ040>042-051-053>054-221500-
WASHINGTON METRO

CITY           SKY/WX    TMP DP  RH WIND       PRES   REMARKS
WASHINGTON NAT LGT RAIN  56  50  80 N14       29.93R
DULLES         CLOUDY    53  49  86 NW15      29.95R
ANDREWS AFB    LGT RAIN  53  52  96 N14       29.90S
FT BELVOIR     LGT RAIN  53  51  90 NW10      29.93R
QUANTICO       RAIN      53  49  86 N15G28    29.94R FOG
COLLEGE PARK*  CLOUDY    54  52  94 N9        29.92R
LEESBURG*      CLOUDY    54  52  94 N13G23    29.97R
GAITHERSBURG*  CLOUDY    52  48  87 N5        29.97R

$$

MDZ006>007-011-014-221500-
BALTIMORE METRO

CITY           SKY/WX    TMP DP  RH WIND       PRES   REMARKS
BWI AIRPORT    RAIN      53  51  93 N9        29.91R FOG
MD SCIENCE CTR   N/A     54  51  90 MISG      29.91S
MARTIN STATE   LGT RAIN  55  54  94 NW10G16   29.92R
ANNAPOLIS      LGT RAIN  56  53  90 N15       29.89R
FORT MEADE*    CLOUDY    52  50  93 N10       29.93S

$$

MDZ012-015-019>023-221500-
MARYLAND EASTERN SHORE

CITY           SKY/WX    TMP DP  RH WIND       PRES   REMARKS
OCEAN CITY     PTSUNNY   60  56  86 N15       29.78F
SALISBURY      CLOUDY    61  55  82 N13       29.80F
BAY BRIDGE AP* RAIN      54  54 100 N14G25    29.88S
CAMBRIDGE*     CLOUDY    55  52  88 N10       29.84S VSB<1/4
EASTON*        LGT RAIN  55  55 100 N10       29.90R

$$

MDZ017>025-221500-
SOUTHERN MARYLAND

CITY           SKY/WX    TMP DP  RH WIND       PRES   REMARKS
PATUXENT RIVER LGT RAIN  55  52  89 N8        29.85S FOG
ST INIGOES     LGT RAIN  55  51  86 VRB7      29.85R
LEONARDTOWN*   CLOUDY    54  50  87 NW7       29.88S

$$

MDZ003>005-221500-
NORTH CENTRAL MARYLAND

CITY           SKY/WX    TMP DP  RH WIND       PRES   REMARKS
FREDERICK*     CLOUDY    61  48  63 N8        29.99R
HAGERSTOWN APT MOSUNNY   54  46  74 N16G25    29.99R
WESTMINSTER*   CLOUDY    54  48  82 N10       29.95R

$$

MDZ501>502-221500-
WESTERN MARYLAND

CITY           SKY/WX    TMP DP  RH WIND       PRES   REMARKS
OAKLAND*       FOG       39 N/A N/A N8G17     30.07R VSB<1/4
CUMBERLAND*    CLOUDY    54  45  71 N16G22    30.09R

$$

VAZ025>031-221500-
SHENANDOAH VALLEY

CITY           SKY/WX    TMP DP  RH WIND       PRES   REMARKS
WINCHESTER*    CLOUDY    54  43  66 NW10G21   30.00R
FRONT ROYAL*   CLOUDY    52  45  76 N9G16     29.99R
LURAY*         PTSUNNY   55  46  71 NW15G22   29.99S
NEW MARKET*    CLOUDY    53  45  74 NE5       30.01S
STAUNTON*      MOSUNNY   54  43  66 NW10G20   30.03R
WAYNESBORO*    CLOUDY    53  42  67 NW12G23   30.00R

$$

WVZ021-048>050-054>055-221500-
EASTERN WEST VIRGINIA PANHANDLE

CITY           SKY/WX    TMP DP  RH WIND       PRES   REMARKS
MARTINSBURG    CLOUDY    54  44  69 NW15G24   30.00R
PETERSBURG*    CLOUDY   N/A N/A N/A NW7       30.07R

$$

VAZ036>039-050-221500-
CENTRAL FOOTHILLS

CITY           SKY/WX    TMP DP  RH WIND       PRES   REMARKS
CHARLOTTESVILL PTSUNNY   55  45  68 NW12G17   29.97R
CULPEPER*      LGT RAIN  55  50  82 NW7       29.97R
ORANGE*        RAIN      54  50  87 NW9       29.98R
GORDONSVILLE*  CLOUDY    53  47  82 N7        29.96R
WARRENTON*     DRIZZLE   55  54  98 NW17      29.95R

$$

VAZ055>057-221500-
NORTH AND CENTRAL PIEDMONT

CITY           SKY/WX    TMP DP  RH WIND       PRES   REMARKS
FREDERICKSBRG* RAIN      54  54 100 NW8       29.93R
STAFFORD*      RAIN      52  52 100 NW14      29.97S

$$

NCZ024-NYZ072-PAZ021-071-VAZ022-071-221500-
OTHER REGIONAL OBSERVATIONS

CITY           SKY/WX    TMP DP  RH WIND       PRES   REMARKS
NEW YORK CITY  CLOUDY    55  51  86 VRB7      29.96S
PHILADELPHIA   CLOUDY    58  52  80 NE15G29   29.88R
PITTSBURGH     CLOUDY    47  44  90 N13       30.15S
ROANOKE        MOSUNNY   52  38  58 N16G25    30.08R
RICHMOND       LGT RAIN  54  51  90 NW16      29.91R
RALEIGH        MOSUNNY   55  38  52 NW10G18   30.00R

$$

ANZ530>537-221500-
MARINE OBSERVATIONS

STATION/POSITION TIME  TEMP    WIND        PRES
                       AIR SEA DIR/SP/G
                 (UTC) (F)     (DEG/KT/KT) (MB)
THOMAS PT LIGHT  1400   55 63  360/ 23/ 25 1012.4R
BALT KEY BRIDGE  1400   55     330/ 14/ 19 1012.2S
COVE POINT       1400   57      10/ 21/ 28 1010.7R
LEWISETTA        1400   57 63  350/ 11/ 15 1010.6S
SOLOMONS ISLAND  1400      65                N/A
PINEY POINT      1400          360/ 16/ 20   N/A

$$




USA.gov is the U.S. government's official web portal to all federal, state and local government web resources and services.